Regional Weather Roundup
Issued by NWS Upton, NY

Home | Current Version | Previous Version | Text Only | Print | Product List | Glossary On
Versions: 1 2 3 4 5 6 7 8 9 10 11 12 13 14 15 16 17 18 19 20 21 22 23 24 25 26 27 28 29 30 31 32 33 34 35 36 37 38 39 40 41 42 43 44 45 46 47 48 49 50
000
ASUS41 KOKX 300104
RWROKX

REGIONAL WEATHER ROUNDUP
NATIONAL WEATHER SERVICE NEW YORK NY
900 PM EDT SAT AUG 29 2015

NOTE: "FAIR" INDICATES FEW OR NO CLOUDS BELOW 12,000 FEET WITH NO
SIGNIFICANT WEATHER AND/OR OBSTRUCTIONS TO VISIBILITY.

NYZ071-072-176-178-NJZ106-104-300200-
NEW YORK CITY METRO AREA


CITY           SKY/WX    TMP DP  RH WIND       PRES   REMARKS
CENTRAL PARK   CLEAR     76  59  55 VRB3      30.13S
LAGUARDIA APRT PTCLDY    77  59  53 S12G17    30.10S
KENNEDY INTL   MOCLDY    76  63  64 S13       30.12S
NEWARK/LIBERTY MOCLDY    77  60  55 S7        30.11R
BRNX BOT. GARD   N/A     75  59  57 W7        30.11F
TETERBORO      CLEAR     76  59  55 S10       30.09S
$$

NYZ177-179-078>081-300200-
LONG ISLAND NEW YORK

CITY           SKY/WX    TMP DP  RH WIND       PRES   REMARKS
FARMINGDALE    CLEAR     75  63  66 SW9       30.12S
ISLIP          MOCLDY    74  63  68 SW10      30.11R
SHIRLEY        CLEAR     73  63  70 SW7       30.13R
WESTHAMPTON    CLEAR     73  63  70 S5        30.14R
MONTAUK POINT    N/A     73  64  73 VRB5      30.13S
$$

NYZ052-065-067-300200-
HUDSON VALLEY

CITY           SKY/WX    TMP DP  RH WIND       PRES   REMARKS
WHITE PLAINS   CLEAR     70  60  70 SE3       30.12R
NEWBURGH       CLEAR     72  63  73 VRB5      30.11R
MONTGOMERY     CLEAR     67  63  87 CALM      30.09S
POUGHKEEPSIE   CLEAR     68  61  78 CALM      30.08R
ALBANY         CLOUDY    72  61  68 CALM      30.08S
$$

NJZ001-105-106-008-010-013-015-019>022-104-300200-
NEW JERSEY

CITY           SKY/WX    TMP DP  RH WIND       PRES   REMARKS
NEWARK/LIBERTY MOCLDY    77  60  55 S7        30.11R
TETERBORO      CLEAR     76  59  55 S10       30.09S
CALDWELL       CLEAR     76  59  55 VRB3      30.10S
MORRISTOWN     MOCLDY    75  61  60 CALM      30.11R
SOMERVILLE     PTCLDY    73  62  68 SE5       30.08R
SUSSEX         CLEAR     67  62  84 CALM      30.10S
ANDOVER          N/A     66  64  93 CALM      30.11S
TRENTON        CLEAR     73  62  68 SE6       30.10R
MILLVILLE      MOCLDY    73  62  68 CALM      30.13R
ATLANTIC CITY  PTCLDY    74  62  66 S6        30.13R
WRIGHTSTOWN    PTCLDY    73  61  66 S8        30.09R
TOMS RIVER     PTCLDY    70  61  73 S3        30.13S
BELMAR         MOCLDY    73  59  60 S6        30.13R
$$

PAZ047>061-062-071-300200-
EASTERN PENNSYLVANIA

CITY           SKY/WX    TMP DP  RH WIND       PRES   REMARKS
PHILADELPHIA   MOCLDY    78  60  53 S9        30.12R
ALLENTOWN      CLEAR     73  62  68 SW3       30.10S
SCRANTON       CLEAR     72  60  66 CALM      30.11R
$$

CTZ002-004>006-009-010-012-RIZ004-006-007-MAZ004-011-015-300200-
SOUTHERN NEW ENGLAND
 IN CT

CITY           SKY/WX    TMP DP  RH WIND       PRES   REMARKS
BRADLEY INTL   PTCLDY    69  62  78 CALM      30.09R
HARTFORD       CLEAR     71  61  70 S3        30.10R
DANBURY        CLEAR     72  58  61 S8        30.13R
WTRBRY/OXFORD  CLEAR     70  55  60 SW6       30.13S
BRIDGEPORT     CLEAR     77  63  61 SW12      30.11R
MERIDEN        CLEAR     68  58  70 CALM      30.11R
NEW HAVEN      CLEAR     75  63  66 SW9G17    30.12R
CHESTER        NOT AVBL
GROTON         CLEAR     72  67  84 SW9       30.11R
WILLIMANTIC    CLEAR     69  60  73 NE3       30.11R

 IN RI

CITY           SKY/WX    TMP DP  RH WIND       PRES   REMARKS
PROVIDENCE     PTCLDY    70  61  73 SW7       30.12R
BLOCK ISLAND   CLEAR     72  64  78 SW12      30.13R
WESTERLY       CLEAR     72  64  76 SW5       30.13R

 IN MA

CITY           SKY/WX    TMP DP  RH WIND       PRES   REMARKS
BOSTON         PTCLDY    77  55  46 W7        30.09S
WORCESTER      CLEAR     67  55  65 W6        30.13S
WESTFIELD      CLEAR     66  61  84 CALM      30.10R
PROVINCETOWN   PTCLDY    70  57  64 SW12      30.11R
NANTUCKET      CLEAR     70  65  84 SW9       30.13R
$$

ANZ330-335-338-340-345-350-353-355-300200-
COASTAL MARINE OBSERVATIONS


STATION/POSITION TIME  SKY/WX   TEMP    WIND        PRES    VSBY  WAVE
                                AIR SEA DIR/SP/G                  HT/PER
                 (UTC)          (F)     (DEG/KT/KT) (MB)    (MI)  (FT/S)
NY HARB ENTRANCE 2350            76 76  200/ 16/ 17 1019.1          3/11
4S FIRE IS       NOT AVBL
20S FIRE ISLAND  2350            76 75  200/ 12/ 16 1019.7          3/11
GREAT SOUTH BAY  0000            76 78  210/ 12/ 14   N/A
23SW MTP         0050            74 74  220/ 12/ 12 1019.7          3/11
HUDSON CANYON    NOT AVBL
KINGS POINT      NOT AVBL
EXECUTION ROCKS  0000            76     190/ 10/ 12   N/A
CENTRAL LI SOUND NOT AVBL
EASTERN LI SOUND 0000            73 71  210/ 12/ 14   N/A
ROBBINS REEF     NOT AVBL
$$


>>>>>>>>>>>>>>>>>>>>>>>>>>>> KEY <<<<<<<<<<<<<<<<<<<<<<<<<<<
>                                                          <
>     SKY/WX - SKY CONDITION/PRESENT WEATHER               <
>     TMP    - TEMPERATURE IN FAHRENHEIT                   <
>     DP     - DEWPOINT IN FAHRENHEIT                      <
>     RH     - RELATIVE HUMIDITY IN PERCENT                <
>     WIND   - DIRECTION AND SPEED IN MPH                  <
>     PRES   - MEAN SEA LEVEL PRESSURE IN INCHES OF HG     <
>     WCI    - WIND CHILL INDEX                            <
>     VSB    - VISIBILITY IN MILES                         <
>     HX     - HEAT INDEX                                  <
>     TC     - TEMPERATURE IN CELSIUS                      <
>     VRB    - VARIABLE WIND DIRECTION                     <
>                                                          <
>>>>>>>>>>>>>>>>>>>>>>>>>>>> KEY <<<<<<<<<<<<<<<<<<<<<<<<<<<




USA.gov is the U.S. government's official web portal to all federal, state and local government web resources and services.